TimeEST,TemperatureF,Dew PointF,Humidity,Sea Level PressureIn,VisibilityMPH,Wind Direction,Wind SpeedMPH,Gust SpeedMPH,PrecipitationIn,Events,Conditions,WindDirDegrees,DateUTC
12:54 AM,39.9,36.0,86,29.99,5.0,East,11.5,-,0.00,Rain,Light Rain,90,2012-12-20 05:54:00
1:54 AM,39.0,37.0,93,29.90,4.0,East,18.4,-,0.01,Rain,Light Rain,80,2012-12-20 06:54:00
2:54 AM,39.9,37.0,89,29.83,5.0,East,21.9,27.6,0.01,,Overcast,100,2012-12-20 07:54:00
3:54 AM,39.9,37.9,93,29.81,4.0,East,13.8,-,0.02,Rain,Light Rain,100,2012-12-20 08:54:00
4:54 AM,39.9,37.9,93,29.75,5.0,East,12.7,-,0.03,,Overcast,90,2012-12-20 09:54:00
5:54 AM,41.0,37.9,89,29.73,5.0,ENE,11.5,-,0.00,Rain,Light Rain,70,2012-12-20 10:54:00
6:54 AM,39.9,37.0,89,29.63,5.0,East,20.7,25.3,0.00,Rain,Light Rain,80,2012-12-20 11:54:00
7:54 AM,39.9,37.0,89,29.60,2.5,ENE,19.6,23.0,0.05,Rain,Heavy Rain,60,2012-12-20 12:54:00
8:05 AM,39.2,37.4,93,29.57,4.0,ENE,17.3,27.6,0.03,Rain,Rain,70,2012-12-20 13:05:00
8:54 AM,39.9,37.9,93,29.55,3.0,East,18.4,-,0.15,Rain,Rain,100,2012-12-20 13:54:00
9:11 AM,39.2,39.2,100,29.53,2.0,East,17.3,-,0.08,Rain,Heavy Rain,100,2012-12-20 14:11:00
9:40 AM,39.2,39.2,100,29.53,3.0,East,12.7,-,0.24,Rain,Rain,100,2012-12-20 14:40:00
9:54 AM,41.0,39.9,96,29.53,2.5,East,10.4,-,0.29,Rain,Rain,100,2012-12-20 14:54:00
10:52 AM,42.8,42.8,100,29.47,3.0,ESE,12.7,-,0.08,Rain,Light Rain,120,2012-12-20 15:52:00
10:54 AM,43.0,43.0,100,29.48,3.0,SE,12.7,-,0.08,Rain,Light Rain,130,2012-12-20 15:54:00
11:54 AM,46.9,45.0,93,29.30,9.0,ESE,25.3,33.4,0.03,Rain,Light Rain,110,2012-12-20 16:54:00
12:21 PM,48.2,46.4,93,29.28,10.0,SE,20.7,35.7,0.00,,Overcast,140,2012-12-20 17:21:00
12:54 PM,48.9,46.9,93,29.25,10.0,SE,20.7,27.6,0.00,,Overcast,140,2012-12-20 17:54:00
1:54 PM,50.0,46.9,89,29.22,10.0,SSE,26.5,39.1,N/A,,Overcast,160,2012-12-20 18:54:00
2:18 PM,50.0,46.4,87,29.20,10.0,SSE,23.0,36.8,0.00,,Overcast,160,2012-12-20 19:18:00
2:54 PM,51.1,48.0,89,29.18,10.0,South,23.0,34.5,0.00,,Overcast,170,2012-12-20 19:54:00
3:29 PM,51.8,46.4,82,29.15,10.0,South,24.2,32.2,N/A,,Mostly Cloudy,180,2012-12-20 20:29:00
3:54 PM,50.0,45.0,83,29.17,5.0,SSW,29.9,40.3,0.01,Rain,Light Rain,210,2012-12-20 20:54:00
4:54 PM,46.9,44.1,90,29.17,8.0,SSW,16.1,-,0.04,Rain,Light Rain,200,2012-12-20 21:54:00
5:03 PM,44.6,41.0,87,29.17,9.0,WSW,27.6,38.0,0.00,Rain,Light Rain,240,2012-12-20 22:03:00
5:09 PM,44.6,39.2,81,29.18,10.0,WSW,25.3,38.0,0.00,Rain,Light Rain,240,2012-12-20 22:09:00
5:27 PM,42.8,37.4,81,29.19,10.0,WSW,24.2,32.2,0.00,,Overcast,240,2012-12-20 22:27:00
5:44 PM,42.8,37.4,81,29.21,10.0,SW,23.0,43.7,0.00,Rain,Light Rain,230,2012-12-20 22:44:00
5:54 PM,42.1,36.0,79,29.22,10.0,WSW,31.1,39.1,0.00,Rain,Light Rain,240,2012-12-20 22:54:00
6:31 PM,39.2,32.0,75,29.22,10.0,SW,29.9,38.0,0.00,,Overcast,230,2012-12-20 23:31:00
6:54 PM,37.9,30.9,76,29.24,10.0,SW,23.0,33.4,0.00,,Overcast,220,2012-12-20 23:54:00
7:17 PM,37.4,32.0,81,29.22,5.0,SSW,33.4,39.1,0.00,Rain-Snow,Light Rain,210,2012-12-21 00:17:00
7:33 PM,35.6,30.2,81,29.22,10.0,SSW,20.7,35.7,0.00,,Overcast,210,2012-12-21 00:33:00
7:54 PM,35.1,30.9,85,29.23,8.0,SSW,27.6,38.0,0.00,Snow,Light Snow,210,2012-12-21 00:54:00
8:13 PM,33.8,32.0,93,29.22,2.0,SSW,17.3,-,0.00,Snow,Light Snow,210,2012-12-21 01:13:00
8:18 PM,33.8,32.0,93,29.22,2.0,SSW,13.8,-,0.01,Snow,Light Snow,210,2012-12-21 01:18:00
8:26 PM,33.8,32.0,93,29.22,1.2,SSW,15.0,-,0.02,Snow,Light Snow,200,2012-12-21 01:26:00
8:32 PM,33.8,32.0,93,29.21,4.0,SSW,18.4,26.5,0.03,Snow,Light Snow,200,2012-12-21 01:32:00
8:42 PM,33.8,32.0,93,29.21,4.0,SSW,23.0,28.8,0.03,Snow,Light Snow,200,2012-12-21 01:42:00
8:54 PM,33.1,30.9,92,29.23,8.0,SSW,19.6,29.9,0.03,Snow,Light Snow,200,2012-12-21 01:54:00
9:13 PM,33.8,30.2,87,29.21,2.5,SSW,19.6,28.8,0.00,Snow,Light Snow,200,2012-12-21 02:13:00
9:17 PM,32.0,30.2,93,29.21,1.5,SSW,19.6,28.8,0.00,Snow,Light Snow,200,2012-12-21 02:17:00
9:43 PM,32.0,30.2,93,29.20,6.0,SSW,19.6,28.8,0.01,Snow,Light Snow,200,2012-12-21 02:43:00
9:54 PM,33.1,30.9,92,29.21,3.0,SSW,18.4,29.9,0.01,Snow,Light Snow,200,2012-12-21 02:54:00
10:01 PM,32.0,30.2,93,29.19,2.0,SSW,20.7,31.1,0.00,Snow,Light Snow,200,2012-12-21 03:01:00
10:09 PM,32.0,30.2,93,29.19,5.0,SSW,19.6,28.8,0.00,Snow,Light Snow,210,2012-12-21 03:09:00
10:25 PM,33.8,30.2,87,29.19,7.0,SSW,20.7,27.6,0.00,Snow,Light Snow,210,2012-12-21 03:25:00
10:54 PM,33.1,32.0,96,29.20,3.0,SW,15.0,-,0.00,Snow,Light Snow,230,2012-12-21 03:54:00
11:54 PM,34.0,33.1,96,29.23,3.0,WSW,25.3,33.4,0.00,Snow,Light Snow,250,2012-12-21 04:54:00